CW4114 Weather Reports


Display with metric or nautical units.
time (UTC)temp
F
wind
direction
speed
MPH
gust
MPH
rain 1hr
in
rain 24hr
in
rain mn
in
humidity
%
barometer
mb
20210125132808 18 252 6.0 9.0 0.00 0.00 0.00 88 1018.5
20210125132308 18 276 6.0 9.0 0.00 0.00 0.00 88 1018.6
20210125131806 18 264 5.0 7.0 0.00 0.00 0.00 88 1018.6
20210125131304 18 252 5.0 9.0 0.00 0.00 0.00 88 1018.6
20210125130806 18 269 6.0 9.0 0.00 0.00 0.00 87 1018.4
20210125130309 18 257 5.0 7.0 0.00 0.00 0.00 87 1018.2
20210125125806 18 264 5.0 7.0 0.00 0.00 0.00 87 1018.2
20210125125310 18 258 4.0 6.0 0.00 0.00 0.00 87 1018.2
20210125124807 18 254 4.0 6.0 0.00 0.00 0.00 87 1018.3
20210125124304 18 251 4.0 9.0 0.00 0.00 0.00 87 1018.1
20210125123812 18 257 5.0 9.0 0.00 0.00 0.00 87 1017.9
20210125123304 18 262 4.0 6.0 0.00 0.00 0.00 86 1017.8
20210125122805 18 259 5.0 6.0 0.00 0.00 0.00 86 1017.7
20210125122307 19 264 4.0 7.0 0.00 0.00 0.00 86 1017.3
20210125121807 19 267 4.0 7.0 0.00 0.00 0.00 86 1017.5
20210125121302 19 272 4.0 7.0 0.00 0.00 0.00 86 1017.4
20210125120759 19 250 4.0 7.0 0.00 0.00 0.00 86 1017.5
20210125120305 19 257 4.0 7.0 0.00 0.00 0.00 86 1017.5
20210125115759 19 259 4.0 6.0 0.00 0.00 0.00 86 1017.4
20210125115259 19 259 4.0 6.0 0.00 0.00 0.00 85 1017.3
20210125114800 19 261 4.0 6.0 0.00 0.00 0.00 85 1017.2
20210125114301 19 258 4.0 6.0 0.00 0.00 0.00 85 1017.4
20210125113755 19 288 4.0 7.0 0.00 0.00 0.00 85 1017.3
20210125113255 19 265 4.0 7.0 0.00 0.00 0.00 85 1017.3
20210125112755 20 255 3.0 6.0 0.00 0.00 0.00 85 1017.3
20210125112256 20 250 4.0 7.0 0.00 0.00 0.00 84 1017.3
20210125111755 20 282 2.0 7.0 0.00 0.00 0.00 84 1017.4
20210125111257 20 269 4.0 7.0 0.00 0.00 0.00 84 1017.5
20210125110757 20 262 4.0 7.0 0.00 0.00 0.00 84 1017.6
20210125110256 20 268 4.0 7.0 0.00 0.00 0.00 83 1017.7
20210125105800 20 255 4.0 7.0 0.00 0.00 0.00 83 1017.7
20210125105259 20 269 4.0 9.0 0.00 0.00 0.00 82 1017.7
20210125104752 21 265 4.0 9.0 0.00 0.00 0.00 82 1017.7
20210125104253 21 271 4.0 6.0 0.00 0.00 0.00 82 1017.7
20210125103752 21 267 4.0 6.0 0.00 0.00 0.00 82 1017.7
20210125103252 21 298 3.0 6.0 0.00 0.00 0.00 82 1017.7
20210125102754 21 264 3.0 5.0 0.00 0.00 0.00 81 1017.8
20210125102252 21 289 3.0 9.0 0.00 0.00 0.00 82 1017.9
20210125101751 21 264 5.0 9.0 0.00 0.00 0.00 82 1017.9
20210125101252 21 261 4.0 7.0 0.00 0.00 0.00 82 1018.0
20210125100747 21 262 5.0 11.0 0.00 0.00 0.00 82 1018.1
20210125100247 22 295 4.0 11.0 0.00 0.00 0.00 82 1018.0
20210125095753 22 258 4.0 9.0 0.00 0.00 0.00 83 1018.0
20210125095250 22 276 5.0 9.0 0.00 0.00 0.00 83 1018.1
20210125094747 22 281 4.0 7.0 0.00 0.00 0.00 83 1018.1
20210125094247 21 285 4.0 10.0 0.00 0.00 0.00 83 1018.0
20210125093746 21 271 4.0 10.0 0.00 0.00 0.00 84 1018.1
20210125093248 21 268 4.0 7.0 0.00 0.00 0.00 84 1018.1
20210125092750 21 276 3.0 7.0 0.00 0.00 0.00 83 1018.0
20210125092248 21 275 3.0 4.0 0.00 0.00 0.00 83 1018.0
20210125091750 21 264 3.0 5.0 0.00 0.00 0.00 83 1017.9
20210125091246 22 268 4.0 5.0 0.00 0.00 0.00 83 1017.9
20210125090747 22 281 4.0 5.0 0.00 0.00 0.00 82 1017.9
20210125090246 22 276 4.0 5.0 0.00 0.00 0.00 82 1017.9
20210125085747 22 302 2.0 5.0 0.00 0.00 0.00 82 1017.8
20210125085253 22 271 2.0 6.0 0.00 0.00 0.00 82 1017.7
20210125084749 22 282 3.0 6.0 0.00 0.00 0.00 82 1017.8
20210125084247 23 282 3.0 5.0 0.00 0.00 0.00 82 1017.8
20210125083745 23 254 3.0 5.0 0.00 0.00 0.00 82 1017.7
20210125083247 23 257 2.0 5.0 0.00 0.00 0.00 81 1017.6
20210125082800 23 289 2.0 5.0 0.00 0.00 0.00 81 1017.6
20210125082247 23 285 2.0 4.0 0.00 0.00 0.00 81 1017.7
20210125081746 23 276 2.0 5.0 0.00 0.00 0.00 80 1017.6
20210125081246 24 292 3.0 5.0 0.00 0.00 0.00 80 1017.6
20210125080744 24 281 3.0 6.0 0.00 0.00 0.00 80 1017.6
20210125080246 24 271 3.0 7.0 0.00 0.00 0.00 80 1017.6
20210125075746 24 250 3.0 7.0 0.00 0.00 0.00 79 1017.6
20210125075244 24 245 4.0 7.0 0.00 0.00 0.00 79 1017.6
20210125074749 24 254 4.0 7.0 0.00 0.00 0.00 78 1017.6
20210125074249 25 268 3.0 6.0 0.00 0.00 0.00 77 1017.5
20210125073746 25 285 4.0 6.0 0.00 0.00 0.00 77 1017.4
20210125073242 25 302 2.0 6.0 0.00 0.00 0.00 77 1017.2
20210125072742 25 275 2.0 6.0 0.00 0.00 0.00 76 1017.3
20210125072242 25 285 3.0 9.0 0.00 0.00 0.00 76 1017.2
20210125071743 26 295 2.0 9.0 0.00 0.00 0.00 76 1017.2
20210125071244 26 286 4.0 9.0 0.00 0.00 0.00 76 1017.1
20210125070749 26 300 4.0 10.0 0.00 0.00 0.00 77 1017.1
20210125070244 26 305 3.0 10.0 0.00 0.00 0.00 76 1017.0
20210125065740 26 298 5.0 10.0 0.00 0.00 0.00 76 1017.0
20210125065241 27 290 3.0 14.0 0.00 0.00 0.00 77 1017.0
20210125064740 27 285 6.0 14.0 0.00 0.00 0.00 78 1017.0
20210125064241 27 317 4.0 10.0 0.00 0.00 0.00 79 1017.0
20210125063746 27 293 4.0 10.0 0.00 0.00 0.00 79 1016.9
20210125063243 27 305 4.0 13.0 0.00 0.00 0.00 80 1016.9
20210125062745 27 333 4.0 13.0 0.00 0.00 0.00 81 1016.9
20210125062241 27 302 4.0 7.0 0.00 0.00 0.00 81 1016.9
20210125061740 28 312 3.0 7.0 0.00 0.00 0.00 81 1016.8
20210125061243 28 309 3.0 6.0 0.00 0.00 0.00 82 1016.8
20210125060743 28 305 2.0 7.0 0.00 0.00 0.00 82 1016.7
20210125060244 28 299 4.0 9.0 0.00 0.00 0.00 82 1016.8
20210125055745 28 298 3.0 9.0 0.00 0.00 0.00 83 1016.6
20210125055243 28 350 2.0 9.0 0.00 0.00 0.00 83 1016.6
20210125054743 28 296 2.0 9.0 0.00 0.00 0.00 84 1016.5
20210125054239 28 255 3.0 9.0 0.00 0.00 0.00 86 1016.5
20210125053739 28 333 4.0 10.0 0.00 0.00 0.00 88 1016.4
20210125053242 28 276 5.0 10.0 0.00 0.00 0.00 89 1016.5
20210125052743 28 274 4.0 9.0 0.00 0.00 0.00 90 1016.5
20210125052241 28 272 3.0 7.0 0.00 0.00 0.00 90 1016.5
20210125051737 28 317 3.0 7.0 0.00 0.00 0.00 90 1016.5
20210125051236 28 310 3.0 9.0 0.00 0.00 0.00 90 1016.6
20210125050738 28 276 5.0 9.0 0.00 0.00 0.00 90 1016.6
20210125050237 28 299 4.0 7.0 0.00 0.00 0.00 90 1016.5
20210125045734 28 262 4.0 9.0 0.00 0.00 0.00 90 1016.5
20210125045236 28 261 5.0 9.0 0.00 0.00 0.00 90 1016.5
20210125044735 28 285 4.0 9.0 0.00 0.00 0.00 90 1016.5
20210125044236 28 292 5.0 9.0 0.00 0.00 0.00 89 1016.4
20210125043734 28 274 6.0 9.0 0.00 0.00 0.00 89 1016.4
20210125043232 28 264 5.0 10.0 0.00 0.00 0.00 89 1016.4
20210125042735 28 248 6.0 10.0 0.00 0.00 0.00 89 1016.3
20210125042235 28 307 4.0 13.0 0.00 0.00 0.00 89 1016.2
20210125041731 28 275 5.0 13.0 0.00 0.00 0.00 89 1016.1
20210125041231 28 237 7.0 12.0 0.00 0.00 0.00 89 1016.1
20210125040730 28 262 7.0 13.0 0.00 0.00 0.00 89 1016.0
20210125040231 28 231 5.0 13.0 0.00 0.00 0.00 89 1016.0
20210125035730 28 271 6.0 11.0 0.00 0.00 0.00 89 1015.9
20210125035231 28 257 7.0 13.0 0.00 0.00 0.00 89 1015.9
20210125034731 28 278 7.0 13.0 0.00 0.00 0.00 89 1015.8
20210125034240 28 268 5.0 12.0 0.00 0.00 0.00 89 1015.8
20210125033734 28 227 6.0 12.0 0.00 0.00 0.00 89 1015.7
20210125033234 28 267 6.0 11.0 0.00 0.00 0.00 89 1015.7
20210125032732 28 250 7.0 11.0 0.00 0.00 0.00 89 1015.7
20210125032227 28 268 8.0 14.0 0.00 0.00 0.00 89 1015.7
20210125031724 28 264 6.0 14.0 0.00 0.00 0.00 89 1015.6
20210125031224 28 267 6.0 16.0 0.00 0.00 0.00 88 1015.6
20210125030723 28 241 9.0 16.0 0.00 0.00 0.00 88 1015.6
20210125030220 28 240 6.0 13.0 0.00 0.00 0.00 88 1015.5
20210125025719 28 236 6.0 13.0 0.00 0.00 0.00 88 1015.5
20210125025218 28 250 8.0 13.0 0.00 0.00 0.00 88 1015.5
20210125024719 28 262 6.0 14.0 0.00 0.00 0.00 88 1015.5
20210125024216 28 264 6.0 14.0 0.00 0.00 0.00 88 1015.5
20210125023718 28 274 5.0 13.0 0.00 0.00 0.00 88 1015.4
20210125023216 28 219 5.0 14.0 0.00 0.00 0.00 88 1015.5
20210125022716 28 234 7.0 14.0 0.00 0.00 0.00 88 1015.5
20210125022219 28 226 6.0 15.0 0.00 0.00 0.00 88 1015.5
20210125021717 28 248 6.0 15.0 0.00 0.00 0.00 88 1015.5
20210125021216 28 220 8.0 14.0 0.00 0.00 0.00 88 1015.5
20210125020726 28 233 6.0 14.0 0.00 0.00 0.00 88 1015.6
20210125020222 28 236 8.0 14.0 0.00 0.00 0.00 88 1015.8
20210125015716 28 267 6.0 12.0 0.00 0.00 0.00 88 1015.8
20210125015218 28 267 5.0 13.0 0.00 0.00 0.00 88 1015.8
20210125014719 28 255 6.0 13.0 0.00 0.00 0.00 88 1015.9
20210125014216 28 238 5.0 15.0 0.00 0.00 0.00 88 1015.9
20210125013716 28 236 6.0 15.0 0.00 0.00 0.00 88 1015.9
20210125013213 28 221 6.0 13.0 0.00 0.00 0.00 88 1015.9
20210125012710 28 199 6.0 13.0 0.00 0.00 0.00 88 1015.9
20210125012210 28 233 5.0 14.0 0.00 0.00 0.00 88 1015.9
20210125011713 28 237 7.0 14.0 0.00 0.00 0.00 88 1015.9
20210125011208 28 233 8.0 12.0 0.00 0.00 0.00 88 1015.9
20210125010706 27 234 6.0 12.0 0.00 0.00 0.00 88 1015.9
20210125010213 27 226 6.0 12.0 0.00 0.00 0.00 88 1015.9
20210125005706 27 243 5.0 11.0 0.00 0.00 0.00 88 1015.8
20210125005210 27 219 8.0 16.0 0.00 0.00 0.00 87 1015.8
20210125004707 28 219 7.0 16.0 0.00 0.00 0.00 87 1015.8
20210125004206 28 207 6.0 14.0 0.00 0.00 0.00 87 1015.8
20210125003705 28 221 9.0 14.0 0.00 0.00 0.00 87 1015.8
20210125003252 28 233 7.0 13.0 0.00 0.00 0.00 87 1015.9
20210125002729 28 219 7.0 12.0 0.00 0.00 0.00 87 1015.9
20210125002215 28 224 6.0 12.0 0.00 0.00 0.00 87 1016.0
20210125001709 28 237 6.0 12.0 0.00 0.00 0.00 86 1016.0
20210125001207 28 212 5.0 13.0 0.00 0.00 0.00 86 1016.0
20210125000707 28 227 6.0 13.0 0.00 0.00 0.00 86 1016.0
20210125000207 28 196 5.0 12.0 0.00 0.00 0.00 86 1016.1
20210124235708 28 212 6.0 12.0 0.00 0.00 0.00 86 1015.9
20210124235204 28 226 4.0 12.0 0.00 0.00 0.00 86 1015.9
20210124234705 28 207 6.0 12.0 0.00 0.00 0.00 86 1015.9
20210124234207 28 238 5.0 12.0 0.00 0.00 0.00 86 1016.0
20210124233704 28 216 5.0 11.0 0.00 0.00 0.00 85 1015.9
20210124233205 28 210 5.0 11.0 0.00 0.00 0.00 85 1015.8
20210124232704 28 204 5.0 11.0 0.00 0.00 0.00 85 1015.9
20210124232204 28 206 5.0 15.0 0.00 0.00 0.00 85 1015.9
20210124231704 28 190 9.0 15.0 0.00 0.00 0.00 85 1015.9
20210124231205 28 206 6.0 12.0 0.00 0.00 0.00 85 1016.0
20210124230704 28 199 6.0 17.0 0.00 0.00 0.00 85 1016.0
20210124230204 28 204 9.0 17.0 0.00 0.00 0.00 85 1016.0
20210124225702 28 240 6.0 14.0 0.00 0.00 0.00 85 1016.0
20210124225203 28 210 6.0 14.0 0.00 0.00 0.00 85 1015.9
20210124224710 28 226 3.0 11.0 0.00 0.00 0.00 85 1016.0
20210124224202 28 179 5.0 11.0 0.00 0.00 0.00 85 1015.9
20210124223659 28 204 5.0 10.0 0.00 0.00 0.00 84 1015.8
20210124223159 28 195 3.0 10.0 0.00 0.00 0.00 84 1015.9
20210124222658 28 227 6.0 11.0 0.00 0.00 0.00 84 1016.0
20210124222157 28 202 5.0 15.0 0.00 0.00 0.00 84 1016.0
20210124221659 28 227 6.0 15.0 0.00 0.00 0.00 83 1016.0
20210124221157 28 221 5.0 10.0 0.00 0.00 0.00 83 1015.9
20210124220658 28 217 4.0 11.0 0.00 0.00 0.00 83 1016.0
20210124220155 28 231 5.0 13.0 0.00 0.00 0.00 82 1016.0
20210124215655 29 206 5.0 13.0 0.00 0.00 0.00 82 1016.1
20210124215154 29 221 6.0 11.0 0.00 0.00 0.00 81 1016.1
20210124214707 29 196 6.0 11.0 0.00 0.00 0.00 81 1016.1
20210124214156 29 186 5.0 11.0 0.00 0.00 0.00 80 1016.1
20210124213652 29 237 5.0 13.0 0.00 0.00 0.00 80 1016.2
20210124213155 29 190 6.0 13.0 0.00 0.00 0.00 79 1016.1
20210124212654 29 213 4.0 12.0 0.00 0.00 0.00 79 1016.1
20210124212152 29 243 6.0 14.0 0.00 0.00 0.00 79 1016.1
20210124211653 29 223 7.0 14.0 0.00 0.00 0.00 79 1016.1
20210124211159 29 213 6.0 12.0 0.00 0.00 0.00 79 1016.1
20210124210656 29 197 3.0 12.0 0.00 0.00 0.00 79 1016.0
20210124210152 29 166 4.0 11.0 0.00 0.00 0.00 79 1016.1
20210124205653 29 182 5.0 11.0 0.00 0.00 0.00 79 1016.1
20210124205158 29 181 4.0 11.0 0.00 0.00 0.00 78 1016.0
20210124204648 29 196 5.0 11.0 0.00 0.00 0.00 78 1016.1
20210124204158 29 210 5.0 11.0 0.00 0.00 0.00 78 1016.2
20210124203655 29 216 4.0 15.0 0.00 0.00 0.00 78 1016.3
20210124203149 29 149 3.0 15.0 0.00 0.00 0.00 78 1016.2
20210124202701 29 159 7.0 13.0 0.00 0.00 0.00 78 1016.3
20210124202147 29 188 6.0 11.0 0.00 0.00 0.00 79 1016.3
20210124201651 29 171 5.0 11.0 0.00 0.00 0.00 79 1016.4
20210124201149 29 182 4.0 10.0 0.00 0.00 0.00 79 1016.3
20210124200648 29 231 2.0 10.0 0.00 0.00 0.00 79 1016.3
20210124200147 29 185 6.0 9.0 0.00 0.00 0.00 79 1016.4
20210124195647 29 188 3.0 11.0 0.00 0.00 0.00 79 1016.4
20210124195146 29 166 6.0 13.0 0.00 0.00 0.00 78 1016.5
20210124194648 29 217 8.0 15.0 0.00 0.00 0.00 78 1016.5
20210124194145 29 193 6.0 15.0 0.00 0.00 0.00 78 1016.6
20210124193649 29 179 7.0 15.0 0.00 0.00 0.00 78 1016.7
20210124193148 29 206 8.0 14.0 0.00 0.00 0.00 78 1016.6
20210124192644 29 185 7.0 14.0 0.00 0.00 0.00 79 1016.7
20210124192145 29 228 8.0 14.0 0.00 0.00 0.00 79 1016.7
20210124191643 29 196 4.0 15.0 0.00 0.00 0.00 79 1016.7
20210124191145 29 213 8.0 15.0 0.00 0.00 0.00 79 1016.8
20210124190641 29 210 7.0 13.0 0.00 0.00 0.00 78 1016.7
20210124190140 29 155 8.0 16.0 0.00 0.00 0.00 78 1016.9
20210124185638 29 164 4.0 16.0 0.00 0.00 0.00 79 1016.9
20210124185141 28 189 7.0 14.0 0.00 0.00 0.00 78 1017.1
20210124184644 28 157 5.0 17.0 0.00 0.00 0.00 78 1017.1
20210124184144 29 181 6.0 17.0 0.00 0.00 0.00 77 1017.2
20210124183640 29 203 7.0 17.0 0.00 0.00 0.00 76 1017.2
20210124183137 29 219 8.0 17.0 0.00 0.00 0.00 76 1017.4
20210124182642 29 233 9.0 15.0 0.00 0.00 0.00 75 1017.5
20210124182135 29 204 8.0 15.0 0.00 0.00 0.00 75 1017.6
20210124181635 29 172 6.0 13.0 0.00 0.00 0.00 75 1017.7
20210124181135 29 240 6.0 12.0 0.00 0.00 0.00 74 1017.8
20210124180637 28 203 4.0 13.0 0.00 0.00 0.00 74 1017.9
20210124180156 28 199 7.0 13.0 0.00 0.00 0.00 74 1018.0
20210124175636 28 149 7.0 13.0 0.00 0.00 0.00 75 1018.2
20210124175143 28 175 3.0 12.0 0.00 0.00 0.00 75 1018.3
20210124174633 28 221 4.0 14.0 0.00 0.00 0.00 74 1018.4
20210124174132 29 245 7.0 15.0 0.00 0.00 0.00 73 1018.5
20210124173632 29 236 4.0 16.0 0.00 0.00 0.00 73 1018.5
20210124173130 29 238 3.0 16.0 0.00 0.00 0.00 72 1018.8
20210124172633 28 182 6.0 12.0 0.00 0.00 0.00 71 1018.9
20210124172135 28 200 6.0 13.0 0.00 0.00 0.00 72 1019.0
20210124171636 28 230 4.0 13.0 0.00 0.00 0.00 72 1019.0
20210124171132 28 188 6.0 15.0 0.00 0.00 0.00 72 1019.1
20210124170626 28 213 9.0 15.0 0.00 0.00 0.00 73 1019.3
20210124170130 28 203 5.0 10.0 0.00 0.00 0.00 75 1019.4
20210124165630 28 179 4.0 12.0 0.00 0.00 0.00 74 1019.5
20210124165121 28 186 6.0 12.0 0.00 0.00 0.00 75 1019.6
20210124164622 28 186 5.0 10.0 0.00 0.00 0.00 75 1019.6
20210124164127 27 179 4.0 10.0 0.00 0.00 0.00 76 1019.7
20210124163622 27 178 6.0 10.0 0.00 0.00 0.00 77 1019.9
20210124163121 28 173 5.0 10.0 0.00 0.00 0.00 78 1020.0
20210124162625 27 176 4.0 9.0 0.00 0.00 0.00 79 1020.1
20210124162123 27 169 5.0 9.0 0.00 0.00 0.00 80 1020.1
20210124161628 27 157 2.0 9.0 0.00 0.00 0.00 81 1020.2
20210124161122 26 179 5.0 9.0 0.00 0.00 0.00 80 1020.2
20210124160619 26 179 3.0 9.0 0.00 0.00 0.00 81 1020.2
20210124160117 26 173 5.0 9.0 0.00 0.00 0.00 81 1020.3
20210124155619 26 207 5.0 7.0 0.00 0.00 0.00 82 1020.4
20210124155116 26 183 4.0 6.0 0.00 0.00 0.00 81 1020.4
20210124154621 25 220 3.0 10.0 0.00 0.00 0.00 82 1020.6
20210124154117 25 193 4.0 10.0 0.00 0.00 0.00 83 1020.8
20210124153620 24 185 4.0 10.0 0.00 0.00 0.00 83 1020.8
20210124153127 24 204 6.0 10.0 0.00 0.00 0.00 84 1020.9
20210124152620 24 188 7.0 10.0 0.00 0.00 0.00 85 1020.9
20210124152114 24 220 4.0 7.0 0.00 0.00 0.00 86 1020.9
20210124151613 23 213 4.0 9.0 0.00 0.00 0.00 86 1020.9
20210124151113 23 176 4.0 9.0 0.00 0.00 0.00 86 1020.9
20210124150614 22 166 2.0 7.0 0.00 0.00 0.00 87 1021.0
20210124150113 22 176 4.0 9.0 0.00 0.00 0.00 87 1020.8
20210124145617 22 210 3.0 9.0 0.00 0.00 0.00 87 1020.9
20210124145124 22 217 4.0 6.0 0.00 0.00 0.00 87 1020.9
20210124144637 21 204 4.0 10.0 0.00 0.00 0.00 87 1020.9
20210124144118 21 204 4.0 10.0 0.00 0.00 0.00 88 1021.0
20210124143641 21 176 4.0 9.0 0.00 0.00 0.00 88 1021.0
20210124143111 21 234 5.0 9.0 0.00 0.00 0.00 88 1021.0
20210124142614 20 210 3.0 6.0 0.00 0.00 0.00 88 1021.1
20210124142112 20 209 3.0 9.0 0.00 0.00 0.00 88 1021.2
20210124141611 20 221 5.0 9.0 0.00 0.00 0.00 88 1021.3
20210124141110 20 228 4.0 7.0 0.00 0.00 0.00 88 1021.3
20210124140611 20 220 5.0 7.0 0.00 0.00 0.00 87 1021.4
20210124140111 20 247 3.0 5.0 0.00 0.00 0.00 87 1021.4
20210124135610 20 197 2.0 7.0 0.00 0.00 0.00 86 1021.4
20210124135119 20 199 5.0 7.0 0.00 0.00 0.00 86 1021.4
20210124134630 20 190 4.0 10.0 0.00 0.00 0.00 86 1021.4
20210124134111 20 220 4.0 10.0 0.00 0.00 0.00 86 1021.5
20210124133616 20 219 5.0 10.0 0.00 0.00 0.00 86 1021.5
20210124133107 19 193 4.0 7.0 0.00 0.00 0.00 85 1021.5